Other Public Products
Issued by NWS Charleston, SC

Current Version | Previous Version | Graphics & Text | Print | Product List | Glossary On
Versions: 1 2 3 4 5 6 7 8 9 10 11 12 13 14 15 16 17 18 19 20 21 22 23 24 25 26 27 28 29 30 31 32 33 34 35 36 37 38 39 40 41 42 43 44 45 46 47 48 49 50
865 FPUS82 KCHS 261227 OPUCHS TEST...KCHS/KSAV Gateway Observations...TEST National Weather Service Charleston SC 800 AM EDT MON JUN 26 2017 NOTE: "fair" indicates few or no clouds below 12,000 feet with no significant weather and/or obstructions to visibility. SCZ050-WAZ558-NCZ071-TXZ119-213-PAZ071-DCZ001-FLZ074-172-MI076- NYZ176-178-MAZ016-IL014-TNZ027-NJZ106-GAZ044-MD014-261300- ...Gateway Observations for Charleston International... CITY SKY/WX TMP DP RH WIND PRES REMARKS Chas Airport PTSUNNY 75 72 90 N7 30.07R 6HR MIN TEMP: 73; 6HR MAX TEMP: 75; 6HR PCP: TRACE; Seattle MOCLDY 58 55 90 S7 29.95S 6HR MIN TEMP: 58; 6HR MAX TEMP: 73; Charlotte MOSUNNY 67 58 72 NW5 30.16R 6HR MIN TEMP: 61; 6HR MAX TEMP: 67; Dallas DFW MOCLDY 73 65 75 E5 30.13R 6HR MIN TEMP: 73; 6HR MAX TEMP: 79; Dallas Love MOCLDY 74 64 71 E9 30.14S 6HR MIN TEMP: 73; 6HR MAX TEMP: 79; Philladelphia MOSUNNY 71 49 45 NW8 30.06R 6HR MIN TEMP: 64; 6HR MAX TEMP: 73; Wash National MOSUNNY 73 52 47 N6 30.09S 6HR MIN TEMP: 68; 6HR MAX TEMP: 74; Baltimore MOSUNNY 69 54 58 W6 30.07S 6HR MIN TEMP: 58; 6HR MAX TEMP: 69; Miami PTSUNNY 85 74 69 SE8 30.07S HX 92 6HR MIN TEMP: 82; 6HR MAX TEMP: 85; Detroit MOSUNNY 60 52 74 W9 30.05R 6HR MIN TEMP: 54; 6HR MAX TEMP: 60; Newark SUNNY 69 52 54 W7 30.03S 6HR MIN TEMP: 64; 6HR MAX TEMP: 69; Laguardia SUNNY 69 53 56 NW9 30.03R 6HR MIN TEMP: 67; 6HR MAX TEMP: 70; J F K MOSUNNY 72 52 49 N9 30.04S Boston Logan SUNNY 67 52 58 W8 29.98R 6HR MIN TEMP: 63; 6HR MAX TEMP: 67; Ft. Lauderdale LGT RAIN 82 77 84 S9 30.06R HX 90 6HR MIN TEMP: 81; 6HR MAX TEMP: 84; 6HR PCP: TRACE; Chicago O`Hare CLOUDY 58 48 69 W9 30.11S 6HR MIN TEMP: 54; 6HR MAX TEMP: 59; Chicago Midway CLOUDY 59 50 72 W7 30.12S 6HR MIN TEMP: 55; 6HR MAX TEMP: 60; Houston Bush CLOUDY 74 70 87 NE6 30.10R 6HR MIN TEMP: 73; 6HR MAX TEMP: 75; Houston Hobby CLOUDY 76 71 85 NE9 30.08S 6HR MIN TEMP: 76; 6HR MAX TEMP: 78; Nashville CLOUDY 66 58 75 CALM 30.20S 6HR MIN TEMP: 61; 6HR MAX TEMP: 66; Atlanta MOSUNNY 69 53 56 N9 30.17R 6HR MIN TEMP: 63; 6HR MAX TEMP: 69; $$ GAZ044-118-TXZ119-213-NCZ071-DCZ001-MDZ014-506-PAZ021-071-NJZ106- NYZ176-178-MAZ106-OHZ011-021-055-MIZ076-KYZ091-ILZ014-INZ047- MNZ060-ONZ431-261300- ...Gateway Observations for Savannah International... CITY SKY/WX TMP DP RH WIND PRES REMARKS Savannah Arpt CLOUDY 77 73 87 N5 30.08R 6HR MIN TEMP: 75; 6HR MAX TEMP: 77; 6HR PCP: TRACE; Atlanta MOSUNNY 69 53 56 N9 30.17R 6HR MIN TEMP: 63; 6HR MAX TEMP: 69; Charlotte MOSUNNY 67 58 72 NW5 30.16R 6HR MIN TEMP: 61; 6HR MAX TEMP: 67; Dallas DFW MOCLDY 73 65 75 E5 30.13R 6HR MIN TEMP: 73; 6HR MAX TEMP: 79; Houston Bush CLOUDY 74 70 87 NE6 30.10R 6HR MIN TEMP: 73; 6HR MAX TEMP: 75; Wash National MOSUNNY 73 52 47 N6 30.09S 6HR MIN TEMP: 68; 6HR MAX TEMP: 74; Wash Dulles MOSUNNY 69 51 52 W6 30.09S 6HR MIN TEMP: 56; 6HR MAX TEMP: 69; Baltimore MOSUNNY 69 54 58 W6 30.07S 6HR MIN TEMP: 58; 6HR MAX TEMP: 69; Philadelphia MOSUNNY 71 49 45 NW8 30.06R 6HR MIN TEMP: 64; 6HR MAX TEMP: 73; Newark SUNNY 69 52 54 W7 30.03S 6HR MIN TEMP: 64; 6HR MAX TEMP: 69; Laguardia SUNNY 69 53 56 NW9 30.03R 6HR MIN TEMP: 67; 6HR MAX TEMP: 70; J F K MOSUNNY 72 52 49 N9 30.04S Boston SUNNY 67 52 58 W8 29.98R 6HR MIN TEMP: 63; 6HR MAX TEMP: 67; Pittsburg MOSUNNY 60 48 64 SW7 30.08S 6HR MIN TEMP: 54; 6HR MAX TEMP: 60; Akron SUNNY 60 47 61 SW7 30.08R 6HR MIN TEMP: 54; 6HR MAX TEMP: 61; Cleveland MOSUNNY 61 50 67 SW7 30.07S 6HR MIN TEMP: 57; 6HR MAX TEMP: 61; Cincinnati SUNNY 60 51 72 W6 30.16R 6HR MIN TEMP: 53; 6HR MAX TEMP: 62; Columbus SUNNY 60 53 76 W7 30.12R Detroit MOSUNNY 60 52 74 W9 30.05R 6HR MIN TEMP: 54; 6HR MAX TEMP: 60; Chicago O`Hare CLOUDY 58 48 69 W9 30.11S 6HR MIN TEMP: 54; 6HR MAX TEMP: 59; Minneapolis SUNNY 54 45 71 N5 30.17R 6HR MIN TEMP: 50; 6HR MAX TEMP: 57; Indianapolis MOSUNNY 58 52 80 W6 30.17R 6HR MIN TEMP: 53; 6HR MAX TEMP: 59; Toronto Canada PTSUNNY 61 54 77 W7 29.98R $$

USA.gov is the U.S. government's official web portal to all federal, state and local government web resources and services.